Data for 05/14/2017

Time Sea-Level Adjusted Pressure Absolute Pressure Temperature Relative Humidity Dew Point   
(mb) (inHg) (mb) (inHg) (C) (F) (%) (C) (F)
00:05 1016 30 845 24.95 0.4 32.8 89 -1.2 29.9
00:10 1016 30 845 24.95 0.4 32.7 89 -1.2 29.8
00:15 1016 30 845 24.95 0.2 32.3 90 -1.3 29.6
00:20 1016 30 845 24.95 0 32.1 90 -1.4 29.5
00:25 1015 29.97 845 24.95 -0.1 31.9 90 -1.5 29.4
00:30 1015 29.97 845 24.95 -0 31.9 90 -1.4 29.4
00:35 1015 29.97 845 24.95 -0 32 90 -1.4 29.5
00:40 1015 29.97 845 24.95 -0.1 31.8 90 -1.5 29.3
00:45 1015 29.97 844 24.92 -0.1 31.9 90 -1.5 29.4
00:50 1015 29.97 844 24.92 -0 32 90 -1.5 29.3
00:55 1015 29.97 845 24.95 -0 32 90 -1.5 29.3
01:00 1015 29.97 845 24.95 -0.1 31.9 90 -1.5 29.3
01:05 1015 29.97 845 24.95 -0.1 31.9 90 -1.5 29.3
01:10 1015 29.97 845 24.95 -0.3 31.5 91 -1.6 29.2
01:15 1015 29.97 845 24.95 -0.4 31.3 92 -1.6 29.2
01:20 1015 29.97 845 24.95 -0.3 31.4 92 -1.5 29.3
01:25 1015 29.97 845 24.95 -0.4 31.4 92 -1.6 29.2
01:30 1015 29.97 845 24.95 -0.4 31.3 92 -1.6 29.2
01:35 1015 29.97 845 24.95 -0.4 31.2 92 -1.6 29.1
01:40 1015 29.97 845 24.95 -0.4 31.3 92 -1.6 29.1
01:45 1015 29.97 845 24.95 -0.2 31.6 90 -1.7 29
01:50 1015 29.97 845 24.95 -0.3 31.5 90 -1.7 28.9
01:55 1015 29.97 845 24.95 -0.4 31.3 90 -1.8 28.7
02:00 1015 29.97 845 24.95 -0.5 31.2 90 -1.9 28.7
02:05 1015 29.97 845 24.95 -0.5 31.1 91 -1.9 28.7
02:10 1015 29.97 845 24.95 -0.4 31.2 90 -1.8 28.7
02:15 1015 29.97 845 24.95 -0.3 31.5 89 -1.8 28.7
02:20 1015 29.97 845 24.95 -0.4 31.3 90 -1.9 28.6
02:25 1015 29.97 844 24.92 -0.3 31.4 88 -2 28.4
02:30 1015 29.97 844 24.92 0 32.1 85 -2.2 28
02:35 1015 29.97 845 24.95 0.1 32.2 86 -2 28.5
02:40 1015 29.97 845 24.95 -0.2 31.6 88 -2 28.5
02:45 1015 29.97 845 24.95 -0.5 31.2 87 -2.3 27.9
02:50 1015 29.97 845 24.95 -0.3 31.5 87 -2.1 28.1
02:55 1015 29.97 845 24.95 -0.4 31.4 87 -2.2 28
03:00 1015 29.97 845 24.95 -0 32 85 -2.2 28.1
03:05 1015 29.97 845 24.95 -0.1 31.7 87 -2.1 28.2
03:10 1015 29.97 845 24.95 -0.4 31.2 87 -2.3 27.8
03:15 1015 29.97 845 24.95 -0.3 31.5 86 -2.4 27.7
03:20 1015 29.97 845 24.95 -0.2 31.6 85 -2.4 27.6
03:25 1015 29.97 845 24.95 -0.4 31.3 87 -2.3 27.9
03:30 1015 29.97 845 24.95 -0.6 30.9 88 -2.3 27.8
03:35 1015 29.97 845 24.95 -0.8 30.6 89 -2.4 27.7
03:40 1015 29.97 845 24.95 -0.9 30.4 89 -2.4 27.6
03:45 1015 29.97 845 24.95 -1.1 30.1 90 -2.5 27.5
03:50 1015 29.97 845 24.95 -1 30.1 90 -2.5 27.5
03:55 1015 29.97 845 24.95 -1 30.2 90 -2.5 27.5
04:00 1015 29.97 845 24.95 -1 30.2 89 -2.6 27.3
04:05 1015 29.97 845 24.95 -1 30.3 89 -2.6 27.3
04:10 1015 29.97 845 24.95 -0.9 30.3 89 -2.6 27.4
04:15 1015 29.97 845 24.95 -0.8 30.6 88 -2.5 27.4
04:20 1015 29.97 845 24.95 -0.7 30.7 87 -2.6 27.3
04:25 1016 30 845 24.95 -0.9 30.4 87 -2.7 27.1
04:30 1015 29.97 845 24.95 -1 30.3 87 -2.9 26.8
04:35 1015 29.97 845 24.95 -1 30.2 85 -3.2 26.2
04:40 1015 29.97 845 24.95 -1 30.2 86 -3.1 26.4
04:45 1015 29.97 845 24.95 -1.1 30.1 86 -3.1 26.4
04:50 1015 29.97 845 24.95 -1.1 30.1 87 -3 26.5
04:55 1015 29.97 845 24.95 -1.1 29.9 86 -3.1 26.4
05:00 1016 30 845 24.95 -1.3 29.7 86 -3.2 26.2
05:05 1016 30 845 24.95 -1.3 29.6 87 -3.2 26.3
05:10 1016 30 845 24.95 -1.5 29.3 88 -3.2 26.2
05:15 1016 30 845 24.95 -1.5 29.3 88 -3.3 26.1
05:20 1016 30 845 24.95 -1.3 29.6 85 -3.5 25.6
05:25 1016 30 845 24.95 -1.1 29.9 83 -3.7 25.3
05:30 1016 30 845 24.95 -0.7 30.8 81 -3.6 25.6
05:35 1016 30 845 24.95 -0.6 31 81 -3.4 25.9
05:40 1016 30 845 24.95 -0.5 31.1 81 -3.3 26
05:45 1016 30 845 24.95 -0.4 31.2 83 -3 26.6
05:50 1016 30 845 24.95 -0.5 31.1 82 -3.2 26.2
05:55 1016 30 845 24.95 -0.6 30.9 82 -3.3 26
06:00 1016 30 845 24.95 -0.3 31.5 82 -3 26.6
06:05 1016 30 845 24.95 0 32.1 82 -2.7 27.2
06:10 1016 30 845 24.95 0.2 32.3 82 -2.6 27.3
06:15 1016 30 845 24.95 0.3 32.6 82 -2.4 27.8
06:20 1016 30 845 24.95 1.1 33.9 79 -2.1 28.2
06:25 1016 30 845 24.95 1.4 34.4 78 -2.1 28.3
06:30 1016 30 845 24.95 1.5 34.8 77 -2.1 28.3
06:35 1016 30 845 24.95 1.5 34.7 77 -2.1 28.3
06:40 1016 30 845 24.95 1.3 34.3 78 -2.2 28
06:45 1016 30 845 24.95 1.2 34.1 78 -2.3 27.9
06:50 1016 30 845 24.95 1.4 34.5 77 -2.2 28
06:55 1016 30 845 24.95 1.6 34.9 76 -2.1 28.2
07:00 1016 30 845 24.95 2.2 35.9 75 -1.7 28.9
07:05 1016 30 845 24.95 3.1 37.6 70 -1.9 28.5
07:10 1016 30 845 24.95 2.9 37.3 70 -1.9 28.5
07:15 1016 30 845 24.95 3 37.5 70 -1.9 28.6
07:20 1016 30 845 24.95 3.3 38 69 -1.8 28.8
07:25 1016 30 845 24.95 3.8 38.9 68 -1.6 29.2
07:30 1016 30 845 24.95 4.2 39.6 69 -1 30.2
07:35 1016 30 845 24.95 4 39.2 69 -1.2 29.9
07:40 1016 30 845 24.95 4 39.2 69 -1.1 29.9
07:45 1016 30 845 24.95 3.9 39 68 -1.5 29.3
07:50 1016 30 845 24.95 4.3 39.7 65 -1.7 28.9
07:55 1016 30 845 24.95 4.9 40.8 68 -0.5 31.1
08:00 1016 30 845 24.95 5.4 41.7 60 -1.7 29
08:05 1016 30 845 24.95 5.1 41.3 67 -0.5 31.2
08:10 1016 30 845 24.95 5.3 41.5 62 -1.5 29.3
08:15 1016 30 845 24.95 5.2 41.3 62 -1.5 29.3
08:20 1016 30 845 24.95 5.4 41.8 56 -2.6 27.4
08:25 1016 30 845 24.95 5.6 42.1 63 -0.8 30.5
08:30 1016 30 845 24.95 6.4 43.5 55 -1.9 28.5
08:35 1016 30 845 24.95 6.9 44.4 53 -1.9 28.5
08:40 1016 30 845 24.95 6.5 43.6 55 -2 28.4
08:45 1016 30 845 24.95 5.8 42.4 59 -1.7 29
08:50 1016 30 845 24.95 6.4 43.4 54 -2.3 27.8
08:55 1016 30 845 24.95 7.2 44.9 53 -1.7 29
09:00 1016 30 845 24.95 7.4 45.3 50 -2.4 27.6
09:05 1016 30 845 24.95 6.5 43.7 53 -2.2 28
09:10 1016 30 845 24.95 7.3 45.1 51 -2.2 28
09:15 1016 30 845 24.95 7.7 45.8 52 -1.4 29.4
09:20 1016 30 845 24.95 7.3 45.2 53 -1.6 29
09:25 1016 30 845 24.95 7.6 45.6 48 -2.6 27.3
09:30 1016 30 845 24.95 8.1 46.7 48 -2.2 28.1
09:35 1016 30 845 24.95 8 46.4 47 -2.5 27.5
09:40 1016 30 845 24.95 8.2 46.8 47 -2.3 27.8
09:45 1016 30 845 24.95 9 48.2 44 -2.6 27.3
09:50 1016 30 845 24.95 9 48.2 43 -2.8 26.9
09:55 1016 30 845 24.95 9.4 48.9 42 -2.7 27.1
10:00 1016 30 845 24.95 9.2 48.5 44 -2.5 27.5
10:05 1016 30 845 24.95 9.1 48.4 39 -4 24.7
10:10 1016 30 845 24.95 9 48.3 35 -5.5 22.1
10:15 1016 30 845 24.95 9 48.1 36 -5.1 22.7
10:20 1016 30 845 24.95 8.7 47.7 32 -7.1 19.2
10:25 1016 30 845 24.95 8.9 48.1 28 -8.6 16.5
10:30 1016 30 845 24.95 8.9 47.9 26 -9.8 14.4
10:35 1016 30 845 24.95 9.5 49.1 24 -9.9 14.2
10:40 1016 30 845 24.95 10 50 26 -8.7 16.3
10:45 1016 30 845 24.95 10.3 50.5 27 -7.8 18
10:50 1016 30 845 24.95 10.2 50.3 28 -7.5 18.4
10:55 1016 30 845 24.95 10.3 50.6 28 -7.2 19
11:00 1016 30 845 24.95 10.4 50.8 27 -7.6 18.4
11:05 1016 30 845 24.95 10.7 51.3 28 -6.9 19.5
11:10 1016 30 845 24.95 10.5 50.8 29 -6.9 19.6
11:15 1016 30 845 24.95 10.2 50.4 31 -6.3 20.6
11:20 1016 30 845 24.95 10.2 50.4 29 -6.9 19.6
11:25 1016 30 845 24.95 10.4 50.7 29 -6.9 19.6
11:30 1016 30 845 24.95 11 51.7 28 -6.7 19.9
11:35 1016 30 845 24.95 11.3 52.3 28 -6.7 19.9
11:40 1016 30 845 24.95 11.3 52.3 26 -7.3 18.8
11:45 1015 29.97 845 24.95 11.6 52.9 26 -7.4 18.7
11:50 1015 29.97 845 24.95 11.7 53 26 -7.2 19
11:55 1015 29.97 845 24.95 11.5 52.7 29 -5.9 21.3
12:00 1015 29.97 844 24.92 11.6 52.9 28 -6.4 20.5
12:05 1015 29.97 844 24.92 12.2 54 26 -6.8 19.8
12:10 1015 29.97 844 24.92 11.1 52 27 -7.2 19.1
12:15 1015 29.97 844 24.92 11.3 52.4 26 -7.4 18.7
12:20 1015 29.97 844 24.92 11.9 53.5 28 -5.8 21.6
12:25 1015 29.97 844 24.92 11.7 53.1 27 -6.6 20.1
12:30 1015 29.97 844 24.92 11.7 53.1 25 -7.7 18.1
12:35 1015 29.97 844 24.92 11.9 53.4 25 -7.6 18.3
12:40 1015 29.97 844 24.92 11.8 53.2 25 -7.8 18
12:45 1015 29.97 844 24.92 12 53.6 26 -6.8 19.7
12:50 1015 29.97 844 24.92 12.6 54.8 23 -8 17.7
12:55 1015 29.97 844 24.92 12.3 54.1 23 -8 17.6
13:00 1015 29.97 844 24.92 11.2 52.1 25 -8.1 17.5
13:05 1015 29.97 844 24.92 11.9 53.5 25 -7.7 18.2
13:10 1015 29.97 844 24.92 12 53.6 26 -6.9 19.5
13:15 1015 29.97 844 24.92 12.7 54.9 25 -6.8 19.7
13:20 1015 29.97 844 24.92 12.9 55.1 25 -6.6 20.2
13:25 1015 29.97 844 24.92 12.8 55 25 -6.5 20.2
13:30 1015 29.97 844 24.92 12.9 55.2 25 -6.6 20.1
13:35 1015 29.97 844 24.92 12.3 54.2 25 -6.9 19.6
13:40 1015 29.97 844 24.92 12.5 54.4 25 -7.1 19.3
13:45 1015 29.97 844 24.92 12.6 54.6 25 -6.7 20
13:50 1015 29.97 844 24.92 12.6 54.8 25 -6.8 19.7
13:55 1015 29.97 844 24.92 12.7 54.8 25 -6.7 20
14:00 1015 29.97 844 24.92 12.3 54.1 26 -6.8 19.7
14:05 1015 29.97 844 24.92 12.6 54.7 24 -7.2 19
14:10 1015 29.97 844 24.92 13.6 56.4 24 -6.6 20.1
14:15 1014 29.94 844 24.92 13.5 56.3 24 -6.8 19.7
14:20 1014 29.94 844 24.92 13.5 56.3 24 -6.4 20.4
14:25 1014 29.94 844 24.92 13 55.4 23 -7.5 18.6
14:30 1014 29.94 844 24.92 12.8 55.1 23 -7.7 18.2
14:35 1014 29.94 844 24.92 12.4 54.3 23 -8.4 16.9
14:40 1014 29.94 844 24.92 12.5 54.4 23 -8.1 17.4
14:45 1014 29.94 844 24.92 13.1 55.5 22 -8 17.6
14:50 1014 29.94 843 24.89 13.3 56 21 -8.6 16.6
14:55 1014 29.94 843 24.89 13.9 57.1 21 -8.1 17.4
15:00 1014 29.94 843 24.89 14 57.2 20 -8.5 16.8
15:05 1014 29.94 843 24.89 13.5 56.4 21 -8.6 16.5
15:10 1014 29.94 843 24.89 13.6 56.5 20 -8.7 16.3
15:15 1014 29.94 843 24.89 13.5 56.3 21 -8.3 17.1
15:20 1014 29.94 843 24.89 12.9 55.2 22 -8.1 17.3
15:25 1014 29.94 843 24.89 12.9 55.3 21 -9 15.8
15:30 1014 29.94 843 24.89 13 55.4 21 -8.8 16.1
15:35 1014 29.94 843 24.89 12.8 55 22 -8.7 16.4
15:40 1014 29.94 843 24.89 12.7 54.9 22 -8.7 16.4
15:45 1014 29.94 843 24.89 12.9 55.3 22 -8.5 16.7
15:50 1014 29.94 843 24.89 13.3 56 21 -8.3 17
15:55 1014 29.94 843 24.89 13.2 55.7 23 -7.7 18.2
16:00 1014 29.94 843 24.89 13.4 56.2 22 -7.6 18.3
16:05 1014 29.94 843 24.89 13.4 56.1 22 -7.7 18.1
16:10 1014 29.94 843 24.89 13.4 56.1 22 -7.7 18.2
16:15 1014 29.94 843 24.89 13 55.3 23 -7.7 18.1
16:20 1014 29.94 843 24.89 12.9 55.2 23 -7.7 18.2
16:25 1014 29.94 843 24.89 12.8 55 22 -8.2 17.2
16:30 1014 29.94 843 24.89 12.5 54.6 23 -7.8 17.9
16:35 1014 29.94 843 24.89 12.4 54.2 24 -7.8 18
16:40 1014 29.94 843 24.89 13 55.3 23 -7.6 18.2
16:45 1014 29.94 843 24.89 12.7 54.8 24 -7.6 18.4
16:50 1014 29.94 843 24.89 12.8 55 24 -7.5 18.6
16:55 1014 29.94 843 24.89 12.8 55 24 -7.5 18.5
17:00 1014 29.94 843 24.89 11.8 53.3 25 -7.6 18.3
17:05 1014 29.94 843 24.89 11.3 52.3 26 -7.7 18.2
17:10 1014 29.94 843 24.89 11.3 52.3 26 -7.6 18.3
17:15 1014 29.94 843 24.89 11.3 52.3 26 -7.7 18.1
17:20 1014 29.94 843 24.89 11.1 52.1 26 -7.8 17.9
17:25 1014 29.94 843 24.89 11 51.7 26 -7.6 18.3
17:30 1014 29.94 843 24.89 11.2 52.1 26 -7.7 18.1
17:35 1014 29.94 843 24.89 11.7 53 25 -7.7 18.1
17:40 1014 29.94 843 24.89 11.3 52.3 26 -7.5 18.6
17:45 1014 29.94 843 24.89 10.8 51.4 27 -7.5 18.5
17:50 1014 29.94 843 24.89 10.8 51.4 27 -7.5 18.6
17:55 1014 29.94 843 24.89 10.8 51.4 27 -7.5 18.5
18:00 1014 29.94 843 24.89 10.4 50.7 27 -7.8 18
18:05 1014 29.94 843 24.89 10.2 50.4 29 -6.9 19.5
18:10 1014 29.94 843 24.89 10.5 51 27 -7.5 18.5
18:15 1014 29.94 843 24.89 10.6 51 28 -7.3 18.9
18:20 1014 29.94 843 24.89 10.5 50.9 27 -7.5 18.4
18:25 1014 29.94 843 24.89 10.6 51 27 -7.7 18.2
18:30 1014 29.94 843 24.89 10.3 50.5 28 -7.2 19
18:35 1014 29.94 843 24.89 10.1 50.1 29 -7.3 18.9
18:40 1014 29.94 843 24.89 10 49.9 28 -7.5 18.5
18:45 1014 29.94 843 24.89 10 50 28 -7.7 18.1
18:50 1014 29.94 843 24.89 10.1 50.1 29 -7 19.4
18:55 1014 29.94 843 24.89 10.2 50.3 28 -7.3 18.8
19:00 1014 29.94 843 24.89 10.1 50.2 28 -7.5 18.6
19:05 1014 29.94 843 24.89 10.1 50.2 29 -7.2 19
19:10 1014 29.94 843 24.89 9.9 49.8 29 -7.2 19
19:15 1014 29.94 843 24.89 9.7 49.5 30 -7.2 19.1
19:20 1014 29.94 843 24.89 9.5 49.1 31 -6.9 19.6
19:25 1014 29.94 843 24.89 9.4 48.9 31 -6.7 19.9
19:30 1014 29.94 843 24.89 9.3 48.7 32 -6.8 19.8
19:35 1014 29.94 843 24.89 9.2 48.6 32 -6.6 20.1
19:40 1014 29.94 843 24.89 9.1 48.4 32 -6.6 20.2
19:45 1014 29.94 843 24.89 9 48.1 33 -6.5 20.2
19:50 1014 29.94 843 24.89 8.9 48 33 -6.6 20.1
19:55 1014 29.94 843 24.89 8.9 47.9 34 -6.1 21
20:00 1014 29.94 843 24.89 8.5 47.2 39 -4.5 23.8
20:05 1014 29.94 843 24.89 7.8 46 44 -3.8 25.1
20:10 1014 29.94 843 24.89 7.6 45.6 45 -3.6 25.5
20:15 1014 29.94 843 24.89 7.4 45.4 49 -2.5 27.5
20:20 1014 29.94 843 24.89 7 44.5 51 -2.6 27.4
20:25 1014 29.94 843 24.89 6.8 44.2 50 -2.8 27
20:30 1014 29.94 843 24.89 6.7 44.1 51 -2.8 27
20:35 1014 29.94 843 24.89 6.6 43.8 51 -2.8 26.9
20:40 1014 29.94 843 24.89 6.3 43.3 52 -2.8 27
20:45 1014 29.94 843 24.89 6.1 42.9 53 -2.7 27.2
20:50 1014 29.94 843 24.89 6.1 42.9 51 -3.3 26.1
20:55 1014 29.94 843 24.89 6.2 43.2 51 -3.1 26.3
21:00 1014 29.94 843 24.89 6 42.9 54 -2.6 27.3
21:05 1014 29.94 843 24.89 5.7 42.3 53 -3.1 26.4
21:10 1014 29.94 843 24.89 5.8 42.5 51 -3.6 25.6
21:15 1014 29.94 843 24.89 6.2 43.2 49 -3.8 25.1
21:20 1014 29.94 843 24.89 6.5 43.7 46 -4.4 24.1
21:25 1014 29.94 843 24.89 6.8 44.2 44 -4.6 23.7
21:30 1014 29.94 843 24.89 7.1 44.7 43 -4.7 23.5
21:35 1014 29.94 843 24.89 7.3 45.1 41 -5.2 22.6
21:40 1014 29.94 843 24.89 7.4 45.3 43 -4.4 24.1
21:45 1014 29.94 843 24.89 7.2 45 44 -4.2 24.4
21:50 1014 29.94 843 24.89 7.1 44.8 45 -3.9 25
21:55 1014 29.94 843 24.89 6.9 44.4 46 -3.8 25.1
22:00 1014 29.94 843 24.89 6.7 44.1 46 -4 24.9
22:05 1014 29.94 843 24.89 6.7 44.1 47 -3.8 25.2
22:10 1014 29.94 843 24.89 6.8 44.2 46 -4.1 24.6
22:15 1014 29.94 843 24.89 6.8 44.2 47 -3.7 25.3
22:20 1014 29.94 843 24.89 6.8 44.2 48 -3.5 25.7
22:25 1014 29.94 843 24.89 6.7 44.1 46 -4.2 24.5
22:30 1013 29.91 843 24.89 7.1 44.7 44 -4.2 24.4
22:35 1013 29.91 843 24.89 7.3 45.1 42 -4.6 23.6
22:40 1013 29.91 843 24.89 7.5 45.5 42 -4.6 23.7
22:45 1013 29.91 843 24.89 7.5 45.5 40 -5.1 22.8
22:50 1013 29.91 843 24.89 7.7 45.8 38 -5.7 21.8
22:55 1013 29.91 843 24.89 7.8 46 40 -4.9 23.2
23:00 1013 29.91 843 24.89 7.5 45.5 41 -4.8 23.3
23:05 1014 29.94 843 24.89 7.4 45.4 41 -4.9 23.2
23:10 1014 29.94 843 24.89 7.4 45.4 41 -5.1 22.8
23:15 1014 29.94 843 24.89 7.5 45.4 41 -5.1 22.9
23:20 1014 29.94 843 24.89 7.4 45.3 41 -4.9 23.1
23:25 1014 29.94 843 24.89 7.2 45 45 -4 24.9
23:30 1014 29.94 843 24.89 6.8 44.3 48 -3.4 25.9
23:35 1014 29.94 843 24.89 6.6 43.9 48 -3.5 25.7
23:40 1014 29.94 843 24.89 6.6 43.9 48 -3.7 25.4
23:45 1014 29.94 843 24.89 6.5 43.8 49 -3.5 25.7
23:50 1014 29.94 843 24.89 6.5 43.6 51 -2.8 26.9
23:55 1014 29.94 843 24.89 6.2 43.1 53 -2.6 27.4
24:00 1014 29.94 843 24.89 6 42.8 55 -2.4 27.7